Location: Unspecified
(0.0000°N, 0.0000°E)
Time: 03:31:07
(UTC+00:00)

Hubble Space Telescope - Visible Passes

Search period start: 05 August 2021 00:00
Search period end: 15 August 2021 00:00
Orbit: 535 x 539 km, 28.5° (Epoch: 04 August)

Date Brightness Start Highest point End Pass type
(mag) Time Alt. Az. Time Alt. Az. Time Alt. Az.
05 Aug 3.5 20:15:18 10° NNW 20:15:57 13° NNW 20:15:57 13° NNW visible
06 Aug 2.9 20:03:57 10° NW 20:05:39 20° NNW 20:05:39 20° NNW visible
07 Aug 2.1 19:52:43 10° NW 19:55:24 33° NNW 19:55:24 33° NNW visible
08 Aug 1.1 19:41:35 10° NW 19:45:11 58° N 19:45:11 58° N visible
09 Aug 0.6 19:30:33 10° WNW 19:34:41 89° SSW 19:35:01 74° SE visible
10 Aug 1.0 19:19:36 10° WNW 19:23:41 62° SSW 19:24:54 41° SSE visible
11 Aug 2.6 05:33:44 10° SSW 05:37:05 24° SSE 05:40:26 10° E visible
11 Aug 1.6 19:08:47 10° WNW 19:12:42 43° SSW 19:14:47 23° SSE visible
12 Aug 2.1 05:22:24 10° SW 05:26:07 32° SSE 05:29:50 10° E visible
12 Aug 2.2 18:58:04 10° W 19:01:44 30° SSW 19:04:41 14° SSE visible
13 Aug 1.5 05:11:55 15° SW 05:15:09 46° SSE 05:19:06 10° ENE visible
13 Aug 2.7 18:47:29 10° W 18:50:46 22° SSW 18:54:02 10° SSE visible
14 Aug 0.9 05:01:49 24° SW 05:04:09 66° SSE 05:08:14 10° ENE visible
14 Aug 3.1 18:37:07 10° WSW 18:39:49 17° SSW 18:42:30 10° SSE visible
